Jackson, MN

11:48 PM CDT on July 26, 2017 (GMT -0500)
Jackson Municipal

Weather History for KMJQ - September, 2012

Change the Weather History Date:

Sunday, September 2, 2012

  Actual Average Record
Temperature  
Mean Temperature 74 °F -  
Max Temperature 89 °F 76 °F 89 °F (2012)
Min Temperature 59 °F 55 °F 44 °F (1998)
Cooling Degree Days 9    
Growing Degree Days 24 (Base 50)    
Moisture  
Dew Point 57 °F    
Average Humidity 57    
Maximum Humidity 82    
Minimum Humidity 31    
Precipitation  
Precipitation 0.00 in - - ()
Sea Level Pressure  
Sea Level Pressure 29.95 in    
Wind  
Wind Speed 8 mph (South)    
Max Wind Speed 14 mph    
Max Gust Speed 20 mph    
Visibility 10 miles    
Events      
Averages and records for this station are not official NWS values.
T = Trace of Precipitation, MM = Missing Value Source: NWS Daily Summary

Daily Weather History Graph

Daily Weather History Graph

Search for Another Location

Airport or City:

Trip Planner

Search our weather history database for the weather conditions in past years. The results will help you decide how hot, cold, wet, or windy it might be!

Date:

Astronomy

Sep. 02, 2012 Rise Set
Actual Time 6:45 AM CDT 7:52 PM CDT
Civil Twilight 6:15 AM CDT 8:22 PM CDT
Nautical Twilight 5:40 AM CDT 8:57 PM CDT
Astronomical Twilight 5:03 AM CDT 9:34 PM CDT
Moon 8:33 PM CDT (9/2) 9:01 AM CDT (9/2)
Length of Visible Light 14h 06m
Length of Day
13h 07m
Waning Gibbous, 95% of the Moon is Illuminated
Sep 2
Waning Gibbous
Sep 8
Last Quarter
Sep 15
New
Sep 22
First Quarter
Sep 29
Full

Hourly Weather History & Observations

Time (CDT) Temp. Heat Index Dew Point Humidity Pressure Visibility Wind Dir Wind Speed Gust Speed Precip Events Conditions
12:14 AM 62.6 °F - 53.6 °F 72% 30.03 in 10.0 mi SE 5.8 mph - N/A   Clear
12:33 AM 64.4 °F - 53.6 °F 68% 30.02 in 10.0 mi SE 5.8 mph - N/A   Clear
12:53 AM 64.4 °F - 53.6 °F 68% 30.02 in 10.0 mi SE 6.9 mph - N/A   Clear
1:14 AM 64.4 °F - 53.6 °F 68% 30.02 in 10.0 mi SE 6.9 mph - N/A   Clear
1:33 AM 64.4 °F - 53.6 °F 68% 30.02 in 10.0 mi SE 6.9 mph - N/A   Clear
1:53 AM 64.4 °F - 53.6 °F 68% 30.02 in 10.0 mi SSE 5.8 mph - N/A   Clear
2:14 AM 62.6 °F - 53.6 °F 72% 30.02 in 10.0 mi SSE 4.6 mph - N/A   Clear
2:33 AM 62.6 °F - 53.6 °F 72% 30.01 in 10.0 mi SSE 5.8 mph - N/A   Clear
3:14 AM 62.6 °F - 53.6 °F 72% 30.00 in 10.0 mi SSE 5.8 mph - N/A   Clear
3:33 AM 62.6 °F - 53.6 °F 72% 30.00 in 10.0 mi SSE 6.9 mph - N/A   Clear
3:53 AM 62.6 °F - 53.6 °F 72% 30.00 in 10.0 mi SSE 8.1 mph - N/A   Clear
4:14 AM 62.6 °F - 53.6 °F 72% 30.00 in 10.0 mi SSE 5.8 mph - N/A   Clear
4:33 AM 62.6 °F - 53.6 °F 72% 30.00 in 10.0 mi SSE 5.8 mph - N/A   Clear
4:53 AM 60.8 °F - 53.6 °F 77% 30.00 in 10.0 mi South 5.8 mph - N/A   Clear
5:14 AM 60.8 °F - 53.6 °F 77% 30.00 in 10.0 mi South 5.8 mph - N/A   Clear
5:33 AM 60.8 °F - 53.6 °F 77% 30.00 in 10.0 mi South 5.8 mph - N/A   Clear
5:53 AM 60.8 °F - 53.6 °F 77% 29.99 in 10.0 mi South 5.8 mph - N/A   Clear
6:14 AM 60.8 °F - 53.6 °F 77% 29.99 in 10.0 mi South 4.6 mph - N/A   Clear
6:33 AM 60.8 °F - 53.6 °F 77% 29.99 in 10.0 mi South 6.9 mph - N/A   Clear
6:54 AM 59.0 °F - 53.6 °F 82% 30.00 in 10.0 mi South 6.9 mph - N/A   Clear
7:13 AM 59.0 °F - 53.6 °F 82% 30.00 in 10.0 mi South 3.5 mph - N/A   Clear
7:33 AM 60.8 °F - 53.6 °F 77% 29.99 in 10.0 mi South 6.9 mph - N/A   Clear
7:54 AM 62.6 °F - 53.6 °F 72% 29.99 in 10.0 mi South 4.6 mph - N/A   Clear
8:13 AM 62.6 °F - 53.6 °F 72% 29.99 in 10.0 mi South 5.8 mph - N/A   Clear
8:33 AM 64.4 °F - 53.6 °F 68% 29.99 in 10.0 mi South 8.1 mph - N/A   Clear
8:54 AM 66.2 °F - 55.4 °F 68% 29.99 in 10.0 mi South 9.2 mph - N/A   Clear
9:13 AM 68.0 °F - 55.4 °F 64% 29.99 in 10.0 mi South 9.2 mph - N/A   Clear
9:33 AM 69.8 °F - 57.2 °F 64% 29.99 in 10.0 mi South 8.1 mph - N/A   Clear
9:54 AM 71.6 °F - 59.0 °F 64% 29.98 in 10.0 mi South 9.2 mph - N/A   Clear
10:13 AM 71.6 °F - 59.0 °F 64% 29.98 in 10.0 mi South 9.2 mph - N/A   Clear
10:33 AM 73.4 °F - 60.8 °F 65% 29.98 in 10.0 mi South 10.4 mph - N/A   Clear
10:54 AM 77.0 °F - 62.6 °F 61% 29.97 in 10.0 mi South 8.1 mph - N/A   Clear
11:13 AM 77.0 °F - 62.6 °F 61% 29.98 in 10.0 mi South 9.2 mph - N/A   Clear
11:33 AM 80.6 °F 81.8 °F 62.6 °F 54% 29.96 in 10.0 mi SSE 9.2 mph - N/A   Clear
11:54 AM 80.6 °F 81.8 °F 62.6 °F 54% 29.97 in 10.0 mi South 12.7 mph - N/A   Clear
12:13 PM 82.4 °F 83.4 °F 62.6 °F 51% 29.96 in 10.0 mi South 11.5 mph 16.1 mph N/A   Clear
12:33 PM 82.4 °F 83.4 °F 62.6 °F 51% 29.96 in 10.0 mi South 12.7 mph - N/A   Clear
12:53 PM 84.2 °F 84.4 °F 60.8 °F 45% 29.95 in 10.0 mi South 11.5 mph 16.1 mph N/A   Clear
1:14 PM 84.2 °F 84.4 °F 60.8 °F 45% 29.94 in 10.0 mi South 11.5 mph - N/A   Clear
1:33 PM 86.0 °F 86.1 °F 60.8 °F 43% 29.94 in 10.0 mi SSE 11.5 mph 17.3 mph N/A   Clear
1:53 PM 86.0 °F 86.1 °F 60.8 °F 43% 29.93 in 10.0 mi SSW 9.2 mph - N/A   Clear
2:13 PM 86.0 °F 86.1 °F 60.8 °F 43% 29.92 in 10.0 mi SSE 11.5 mph 17.3 mph N/A   Clear
2:33 PM 87.8 °F 87.6 °F 60.8 °F 40% 29.91 in 10.0 mi South 10.4 mph - N/A   Clear
2:53 PM 87.8 °F 87.6 °F 60.8 °F 40% 29.91 in 10.0 mi South 13.8 mph 17.3 mph N/A   Clear
3:14 PM 87.8 °F 87.1 °F 59.0 °F 38% 29.90 in 10.0 mi South 12.7 mph 18.4 mph N/A   Clear
3:33 PM 87.8 °F 86.5 °F 57.2 °F 35% 29.89 in 10.0 mi SSW 13.8 mph 18.4 mph N/A   Clear
3:53 PM 89.6 °F 87.7 °F 55.4 °F 31% 29.89 in 10.0 mi South 10.4 mph 19.6 mph N/A   Clear
4:14 PM 89.6 °F 88.1 °F 57.2 °F 33% 29.89 in 10.0 mi South 10.4 mph 17.3 mph N/A   Clear
4:33 PM 87.8 °F 86.5 °F 57.2 °F 35% 29.88 in 10.0 mi SSE 10.4 mph - N/A   Clear
4:53 PM 89.6 °F 88.1 °F 57.2 °F 33% 29.88 in 10.0 mi South 12.7 mph 17.3 mph N/A   Clear
5:14 PM 89.6 °F 87.7 °F 55.4 °F 31% 29.88 in 10.0 mi SSE 10.4 mph - N/A   Clear
5:33 PM 87.8 °F 86.1 °F 55.4 °F 33% 29.88 in 10.0 mi South 9.2 mph 17.3 mph N/A   Clear
5:53 PM 87.8 °F 86.5 °F 57.2 °F 35% 29.89 in 10.0 mi SSW 9.2 mph - N/A   Clear
6:14 PM 86.0 °F 85.4 °F 59.0 °F 40% 29.89 in 10.0 mi South 6.9 mph - N/A   Clear
6:33 PM 86.0 °F 85.4 °F 59.0 °F 40% 29.89 in 10.0 mi South 6.9 mph - N/A   Clear
6:53 PM 84.2 °F 84.4 °F 60.8 °F 45% 29.88 in 10.0 mi SSE 6.9 mph - N/A   Clear
7:14 PM 82.4 °F 82.9 °F 60.8 °F 48% 29.88 in 10.0 mi SSE 5.8 mph - N/A   Clear
7:33 PM 80.6 °F 81.5 °F 60.8 °F 51% 29.88 in 10.0 mi SSE 6.9 mph - N/A   Clear
7:54 PM 80.6 °F 81.5 °F 60.8 °F 51% 29.87 in 10.0 mi SSE 8.1 mph - N/A   Clear
8:13 PM 82.4 °F 82.5 °F 59.0 °F 45% 29.86 in 10.0 mi SSE 10.4 mph - N/A   Clear
8:33 PM 82.4 °F 82.5 °F 59.0 °F 45% 29.86 in 10.0 mi SSE 9.2 mph - N/A   Clear
8:54 PM 80.6 °F 81.1 °F 59.0 °F 48% 29.88 in 10.0 mi SSE 9.2 mph - N/A   Clear
9:13 PM 80.6 °F 81.1 °F 59.0 °F 48% 29.87 in 10.0 mi South 11.5 mph - N/A   Clear
9:33 PM 78.8 °F - 60.8 °F 54% 29.88 in 10.0 mi South 9.2 mph - N/A   Clear
9:54 PM 77.0 °F - 60.8 °F 57% 29.89 in 10.0 mi South 8.1 mph - N/A   Clear
10:13 PM 77.0 °F - 60.8 °F 57% 29.89 in 10.0 mi South 6.9 mph - N/A   Clear
10:33 PM 77.0 °F - 60.8 °F 57% 29.90 in 10.0 mi South 8.1 mph - N/A   Clear
11:13 PM 73.4 °F - 60.8 °F 65% 29.89 in 10.0 mi South 8.1 mph - N/A   Clear
11:54 PM 75.2 °F - 60.8 °F 61% 29.89 in 10.0 mi South 10.4 mph - N/A   Clear